Year,Month,Day,Hour,Minute,Value (Times are PST for temperature in C)
2014,07,12,00,00,15.20
2014,07,12,00,01,15.20
2014,07,12,00,02,15.20
2014,07,12,00,03,15.20
2014,07,12,00,04,15.20
2014,07,12,00,05,15.30
2014,07,12,00,06,15.40
2014,07,12,00,07,15.40
2014,07,12,00,08,15.50
2014,07,12,00,09,15.60
2014,07,12,00,10,15.60
2014,07,12,00,11,15.70
2014,07,12,00,12,15.70
2014,07,12,00,13,15.70
2014,07,12,00,14,15.70
2014,07,12,00,15,15.70
2014,07,12,00,16,15.70
2014,07,12,00,17,15.70
2014,07,12,00,18,15.70
2014,07,12,00,19,15.70
2014,07,12,00,20,15.70
2014,07,12,00,21,15.70
2014,07,12,00,22,15.70
2014,07,12,00,23,15.70
2014,07,12,00,24,15.70
2014,07,12,00,25,15.70
2014,07,12,00,26,15.70
2014,07,12,00,27,15.60
2014,07,12,00,28,15.60
2014,07,12,00,29,15.60
2014,07,12,00,30,15.60
2014,07,12,00,31,15.50
2014,07,12,00,32,15.50
2014,07,12,00,33,15.50
2014,07,12,00,34,15.50
2014,07,12,00,35,15.50
2014,07,12,00,36,15.40
2014,07,12,00,37,15.40
2014,07,12,00,38,15.40
2014,07,12,00,39,15.40
2014,07,12,00,40,15.30
2014,07,12,00,41,15.30
2014,07,12,00,42,15.30
2014,07,12,00,43,15.30
2014,07,12,00,44,15.20
2014,07,12,00,45,15.20
2014,07,12,00,46,15.20
2014,07,12,00,47,15.20
2014,07,12,00,48,15.20
2014,07,12,00,49,15.10
2014,07,12,00,50,15.10
2014,07,12,00,51,15.10
2014,07,12,00,52,15.10
2014,07,12,00,53,15.10
2014,07,12,00,54,15.00
2014,07,12,00,55,15.00
2014,07,12,00,56,15.00
2014,07,12,00,57,15.00
2014,07,12,00,58,15.00
2014,07,12,00,59,15.00
2014,07,12,01,00,15.00
2014,07,12,01,01,14.90
2014,07,12,01,02,14.90
2014,07,12,01,03,14.90
2014,07,12,01,04,14.90
2014,07,12,01,05,14.90
2014,07,12,01,06,14.90
2014,07,12,01,07,14.90
2014,07,12,01,08,14.90
2014,07,12,01,09,14.90
2014,07,12,01,10,14.90
2014,07,12,01,11,14.90
2014,07,12,01,12,14.90
2014,07,12,01,13,14.90
2014,07,12,01,14,14.90
2014,07,12,01,15,14.80
2014,07,12,01,16,14.80
2014,07,12,01,17,14.80
2014,07,12,01,18,14.80
2014,07,12,01,19,14.80
2014,07,12,01,20,14.80
2014,07,12,01,21,14.80
2014,07,12,01,22,14.80
2014,07,12,01,23,14.80
2014,07,12,01,24,14.80
2014,07,12,01,25,14.80
2014,07,12,01,26,14.80
2014,07,12,01,27,14.80
2014,07,12,01,28,14.80
2014,07,12,01,29,14.70
2014,07,12,01,30,14.70
2014,07,12,01,31,14.70
2014,07,12,01,32,14.60
2014,07,12,01,33,14.50
2014,07,12,01,34,14.50
2014,07,12,01,35,14.40
2014,07,12,01,36,14.40
2014,07,12,01,37,14.30
2014,07,12,01,38,14.30
2014,07,12,01,39,14.20
2014,07,12,01,40,14.20
2014,07,12,01,41,14.10
2014,07,12,01,42,14.10
2014,07,12,01,43,14.00
2014,07,12,01,44,14.00
2014,07,12,01,45,13.90
2014,07,12,01,46,13.90
2014,07,12,01,47,13.80
2014,07,12,01,48,13.80
2014,07,12,01,49,13.80
2014,07,12,01,50,13.80
2014,07,12,01,51,13.80
2014,07,12,01,52,13.80
2014,07,12,01,53,13.80
2014,07,12,01,54,13.80
2014,07,12,01,55,13.80
2014,07,12,01,56,13.80
2014,07,12,01,57,13.80
2014,07,12,01,58,13.80
2014,07,12,01,59,13.80
2014,07,12,02,00,13.80
2014,07,12,02,01,13.80
2014,07,12,02,02,13.80
2014,07,12,02,03,13.80
2014,07,12,02,04,13.80
2014,07,12,02,05,13.80
2014,07,12,02,06,13.80
2014,07,12,02,07,13.80
2014,07,12,02,08,13.80
2014,07,12,02,09,13.80
2014,07,12,02,10,13.80
2014,07,12,02,11,13.70
2014,07,12,02,12,13.80
2014,07,12,02,13,13.80
2014,07,12,02,14,13.80
2014,07,12,02,15,13.80
2014,07,12,02,16,13.80
2014,07,12,02,17,13.80
2014,07,12,02,18,13.80
2014,07,12,02,19,13.80
2014,07,12,02,20,13.80
2014,07,12,02,21,13.70
2014,07,12,02,22,13.70
2014,07,12,02,23,13.70
2014,07,12,02,24,13.70
2014,07,12,02,25,13.70
2014,07,12,02,26,13.70
2014,07,12,02,27,13.70
2014,07,12,02,28,13.70
2014,07,12,02,29,13.70
2014,07,12,02,30,13.60
2014,07,12,02,31,13.60
2014,07,12,02,32,13.60
2014,07,12,02,33,13.60
2014,07,12,02,34,13.60
2014,07,12,02,35,13.60
2014,07,12,02,36,13.60
2014,07,12,02,37,13.50
2014,07,12,02,38,13.50
2014,07,12,02,39,13.40
2014,07,12,02,40,13.40
2014,07,12,02,41,13.30
2014,07,12,02,42,13.30
2014,07,12,02,43,13.20
2014,07,12,02,44,13.20
2014,07,12,02,45,13.10
2014,07,12,02,46,13.00
2014,07,12,02,47,13.00
2014,07,12,02,48,12.90
2014,07,12,02,49,12.90
2014,07,12,02,50,12.80
2014,07,12,02,51,12.80
2014,07,12,02,52,12.70
2014,07,12,02,53,12.70
2014,07,12,02,54,12.70
2014,07,12,02,55,12.70
2014,07,12,02,56,12.60
2014,07,12,02,57,12.60
2014,07,12,02,58,12.60
2014,07,12,02,59,12.60
2014,07,12,03,00,12.60
2014,07,12,03,01,12.60
2014,07,12,03,02,12.60
2014,07,12,03,03,12.60
2014,07,12,03,04,12.70
2014,07,12,03,05,12.70
2014,07,12,03,06,12.70
2014,07,12,03,07,12.70
2014,07,12,03,08,12.70
2014,07,12,03,09,12.70
2014,07,12,03,10,12.70
2014,07,12,03,11,12.70
2014,07,12,03,12,12.70
2014,07,12,03,13,12.70
2014,07,12,03,14,12.70
2014,07,12,03,15,12.70
2014,07,12,03,16,12.70
2014,07,12,03,17,12.70
2014,07,12,03,18,12.70
2014,07,12,03,19,12.60
2014,07,12,03,20,12.60
2014,07,12,03,21,12.60
2014,07,12,03,22,12.60
2014,07,12,03,23,12.60
2014,07,12,03,24,12.60
2014,07,12,03,25,12.60
2014,07,12,03,26,12.50
2014,07,12,03,27,12.50
2014,07,12,03,28,12.50
2014,07,12,03,29,12.50
2014,07,12,03,30,12.40
2014,07,12,03,31,12.40
2014,07,12,03,32,12.40
2014,07,12,03,33,12.40
2014,07,12,03,34,12.40
2014,07,12,03,35,12.40
2014,07,12,03,36,12.40
2014,07,12,03,37,12.40
2014,07,12,03,38,12.40
2014,07,12,03,39,12.40
2014,07,12,03,40,12.40
2014,07,12,03,41,12.30
2014,07,12,03,42,12.30
2014,07,12,03,43,12.30
2014,07,12,03,44,12.30
2014,07,12,03,45,12.30
2014,07,12,03,46,12.30
2014,07,12,03,47,12.30
2014,07,12,03,48,12.30
2014,07,12,03,49,12.30
2014,07,12,03,50,12.30
2014,07,12,03,51,12.30
2014,07,12,03,52,12.30
2014,07,12,03,53,12.20
2014,07,12,03,54,12.20
2014,07,12,03,55,12.20
2014,07,12,03,56,12.20
2014,07,12,03,57,12.20
2014,07,12,03,58,12.20
2014,07,12,03,59,12.20
2014,07,12,04,00,12.20
2014,07,12,04,01,12.20
2014,07,12,04,02,12.30
2014,07,12,04,03,12.30
2014,07,12,04,04,12.30
2014,07,12,04,05,12.30
2014,07,12,04,06,12.30
2014,07,12,04,07,12.30
2014,07,12,04,08,12.30
2014,07,12,04,09,12.30
2014,07,12,04,10,12.30
2014,07,12,04,11,12.30
2014,07,12,04,12,12.30
2014,07,12,04,13,12.30
2014,07,12,04,14,12.20
2014,07,12,04,15,12.20
2014,07,12,04,16,12.20
2014,07,12,04,17,12.20
2014,07,12,04,18,12.20
2014,07,12,04,19,12.20
2014,07,12,04,20,12.20
2014,07,12,04,21,12.20
2014,07,12,04,22,12.10
2014,07,12,04,23,12.10
2014,07,12,04,24,12.10
2014,07,12,04,25,12.10
2014,07,12,04,26,12.10
2014,07,12,04,27,12.10
2014,07,12,04,28,12.10
2014,07,12,04,29,12.00
2014,07,12,04,30,12.00
2014,07,12,04,31,12.00
2014,07,12,04,32,12.00
2014,07,12,04,33,11.90
2014,07,12,04,34,11.90
2014,07,12,04,35,11.90
2014,07,12,04,36,11.90
2014,07,12,04,37,11.90
2014,07,12,04,38,11.90
2014,07,12,04,39,11.90
2014,07,12,04,40,11.80
2014,07,12,04,41,11.80
2014,07,12,04,42,11.80
2014,07,12,04,43,11.80
2014,07,12,04,44,11.80
2014,07,12,04,45,11.80
2014,07,12,04,46,11.80
2014,07,12,04,47,11.80
2014,07,12,04,48,11.80
2014,07,12,04,49,11.80
2014,07,12,04,50,11.80
2014,07,12,04,51,11.80
2014,07,12,04,52,11.80
2014,07,12,04,53,11.80
2014,07,12,04,54,11.70
2014,07,12,04,55,11.70
2014,07,12,04,56,11.70
2014,07,12,04,57,11.70
2014,07,12,04,58,11.70
2014,07,12,04,59,11.70
2014,07,12,05,00,11.70
2014,07,12,05,01,11.70
2014,07,12,05,02,11.70
2014,07,12,05,03,11.70
2014,07,12,05,04,11.70
2014,07,12,05,05,11.70
2014,07,12,05,06,11.70
2014,07,12,05,07,11.80
2014,07,12,05,08,11.80
2014,07,12,05,09,11.80
2014,07,12,05,10,11.80
2014,07,12,05,11,11.80
2014,07,12,05,12,11.80
2014,07,12,05,13,11.80
2014,07,12,05,14,11.80
2014,07,12,05,15,11.70
2014,07,12,05,16,11.70
2014,07,12,05,17,11.70
2014,07,12,05,18,11.70
2014,07,12,05,19,11.70
2014,07,12,05,20,11.70
2014,07,12,05,21,11.70
2014,07,12,05,22,11.70
2014,07,12,05,23,11.70
2014,07,12,05,24,11.70
2014,07,12,05,25,11.70
2014,07,12,05,26,11.70
2014,07,12,05,27,11.70
2014,07,12,05,28,11.70
2014,07,12,05,29,11.70
2014,07,12,05,30,11.70
2014,07,12,05,31,11.70
2014,07,12,05,32,11.70
2014,07,12,05,33,11.70
2014,07,12,05,34,11.60
2014,07,12,05,35,11.60
2014,07,12,05,36,11.60
2014,07,12,05,37,11.60
2014,07,12,05,38,11.60
2014,07,12,05,39,11.60
2014,07,12,05,40,11.60
2014,07,12,05,41,11.60
2014,07,12,05,42,11.60
2014,07,12,05,43,11.60
2014,07,12,05,44,11.60
2014,07,12,05,45,11.60
2014,07,12,05,46,11.60
2014,07,12,05,47,11.60
2014,07,12,05,48,11.50
2014,07,12,05,49,11.50
2014,07,12,05,50,11.50
2014,07,12,05,51,11.50
2014,07,12,05,52,11.50
2014,07,12,05,53,11.50
2014,07,12,05,54,11.50
2014,07,12,05,55,11.40
2014,07,12,05,56,11.40
2014,07,12,05,57,11.50
2014,07,12,05,58,11.40
2014,07,12,05,59,11.40
2014,07,12,06,00,11.40
2014,07,12,06,01,11.40
2014,07,12,06,02,11.40
2014,07,12,06,03,11.40
2014,07,12,06,04,11.40
2014,07,12,06,05,11.40
2014,07,12,06,06,11.40
2014,07,12,06,07,11.40
2014,07,12,06,08,11.40
2014,07,12,06,09,11.40
2014,07,12,06,10,11.40
2014,07,12,06,11,11.40
2014,07,12,06,12,11.40
2014,07,12,06,13,11.40
2014,07,12,06,14,11.50
2014,07,12,06,15,11.50
2014,07,12,06,16,11.50
2014,07,12,06,17,11.50
2014,07,12,06,18,11.50
2014,07,12,06,19,11.60
2014,07,12,06,20,11.60
2014,07,12,06,21,11.60
2014,07,12,06,22,11.60
2014,07,12,06,23,11.70
2014,07,12,06,24,11.70
2014,07,12,06,25,11.70
2014,07,12,06,26,11.70
2014,07,12,06,27,11.70
2014,07,12,06,28,11.80
2014,07,12,06,29,11.80
2014,07,12,06,30,11.80
2014,07,12,06,31,11.80
2014,07,12,06,32,11.80
2014,07,12,06,33,11.80
2014,07,12,06,34,11.80
2014,07,12,06,35,11.80
2014,07,12,06,36,11.90
2014,07,12,06,37,11.90
2014,07,12,06,38,11.90
2014,07,12,06,39,11.90
2014,07,12,06,40,11.90
2014,07,12,06,41,11.90
2014,07,12,06,42,11.90
2014,07,12,06,43,12.00
2014,07,12,06,44,12.00
2014,07,12,06,45,12.00
2014,07,12,06,46,12.10
2014,07,12,06,47,12.10
2014,07,12,06,48,12.10
2014,07,12,06,49,12.20
2014,07,12,06,50,12.20
2014,07,12,06,51,12.30
2014,07,12,06,52,12.30
2014,07,12,06,53,12.40
2014,07,12,06,54,12.40
2014,07,12,06,55,12.50
2014,07,12,06,56,12.50
2014,07,12,06,57,12.50
2014,07,12,06,58,12.60
2014,07,12,06,59,12.60
2014,07,12,07,00,12.70
2014,07,12,07,01,12.70
2014,07,12,07,02,12.70
2014,07,12,07,03,12.80
2014,07,12,07,04,12.80
2014,07,12,07,05,12.80
2014,07,12,07,06,12.90
2014,07,12,07,07,12.90
2014,07,12,07,08,13.00
2014,07,12,07,09,13.00
2014,07,12,07,10,13.10
2014,07,12,07,11,13.10
2014,07,12,07,12,13.20
2014,07,12,07,13,13.20
2014,07,12,07,14,13.30
2014,07,12,07,15,13.40
2014,07,12,07,16,13.50
2014,07,12,07,17,13.50
2014,07,12,07,18,13.60
2014,07,12,07,19,13.70
2014,07,12,07,20,13.80
2014,07,12,07,21,13.90
2014,07,12,07,22,13.90
2014,07,12,07,23,14.00
2014,07,12,07,24,14.10
2014,07,12,07,25,14.10
2014,07,12,07,26,14.10
2014,07,12,07,27,14.20
2014,07,12,07,28,14.20
2014,07,12,07,29,14.20
2014,07,12,07,30,14.30
2014,07,12,07,31,14.30
2014,07,12,07,32,14.40
2014,07,12,07,33,14.40
2014,07,12,07,34,14.40
2014,07,12,07,35,14.40
2014,07,12,07,36,14.50
2014,07,12,07,37,14.50
2014,07,12,07,38,14.60
2014,07,12,07,39,14.60
2014,07,12,07,40,14.60
2014,07,12,07,41,14.70
2014,07,12,07,42,14.70
2014,07,12,07,43,14.80
2014,07,12,07,44,14.90
2014,07,12,07,45,14.90
2014,07,12,07,46,15.00
2014,07,12,07,47,15.10
2014,07,12,07,48,15.10
2014,07,12,07,49,15.20
2014,07,12,07,50,15.20
2014,07,12,07,51,15.20
2014,07,12,07,52,15.30
2014,07,12,07,53,15.30
2014,07,12,07,54,15.30
2014,07,12,07,55,15.30
2014,07,12,07,56,15.30
2014,07,12,07,57,15.40
2014,07,12,07,58,15.40
2014,07,12,07,59,15.40
2014,07,12,08,00,15.40
2014,07,12,08,01,15.30
2014,07,12,08,02,15.30
2014,07,12,08,03,15.20
2014,07,12,08,04,15.00
2014,07,12,08,05,15.00
2014,07,12,08,06,14.90
2014,07,12,08,07,14.80
2014,07,12,08,08,14.70
2014,07,12,08,09,14.70
2014,07,12,08,10,14.60
2014,07,12,08,11,14.60
2014,07,12,08,12,14.50
2014,07,12,08,13,14.40
2014,07,12,08,14,14.40
2014,07,12,08,15,14.40
2014,07,12,08,16,14.40
2014,07,12,08,17,14.40
2014,07,12,08,18,14.40
2014,07,12,08,19,14.50
2014,07,12,08,20,14.50
2014,07,12,08,21,14.50
2014,07,12,08,22,14.60
2014,07,12,08,23,14.60
2014,07,12,08,24,14.70
2014,07,12,08,25,14.70
2014,07,12,08,26,14.80
2014,07,12,08,27,14.90
2014,07,12,08,28,14.90
2014,07,12,08,29,15.00
2014,07,12,08,30,15.10
2014,07,12,08,31,15.20
2014,07,12,08,32,15.30
2014,07,12,08,33,15.40
2014,07,12,08,34,15.50
2014,07,12,08,35,15.60
2014,07,12,08,36,15.70
2014,07,12,08,37,15.80
2014,07,12,08,38,15.90
2014,07,12,08,39,15.90
2014,07,12,08,40,16.00
2014,07,12,08,41,16.00
2014,07,12,08,42,15.90
2014,07,12,08,43,15.90
2014,07,12,08,44,15.90
2014,07,12,08,45,15.90
2014,07,12,08,46,15.80
2014,07,12,08,47,15.80
2014,07,12,08,48,15.90
2014,07,12,08,49,15.90
2014,07,12,08,50,15.90
2014,07,12,08,51,15.80
2014,07,12,08,52,15.80
2014,07,12,08,53,15.80
2014,07,12,08,54,15.70
2014,07,12,08,55,15.70
2014,07,12,08,56,15.60
2014,07,12,08,57,15.50
2014,07,12,08,58,15.30
2014,07,12,08,59,15.10
2014,07,12,09,00,14.90
2014,07,12,09,01,14.70
2014,07,12,09,02,14.60
2014,07,12,09,03,14.40
2014,07,12,09,04,14.30
2014,07,12,09,05,14.20
2014,07,12,09,06,14.10
2014,07,12,09,07,14.10
2014,07,12,09,08,14.00
2014,07,12,09,09,14.00
2014,07,12,09,10,14.00
2014,07,12,09,11,14.10
2014,07,12,09,12,14.10
2014,07,12,09,13,14.20
2014,07,12,09,14,14.30
2014,07,12,09,15,14.40
2014,07,12,09,16,14.40
2014,07,12,09,17,14.50
2014,07,12,09,18,14.60
2014,07,12,09,19,14.70
2014,07,12,09,20,14.80
2014,07,12,09,21,15.00
2014,07,12,09,22,15.20
2014,07,12,09,23,15.40
2014,07,12,09,24,15.60
2014,07,12,09,25,15.70
2014,07,12,09,26,15.80
2014,07,12,09,27,16.00
2014,07,12,09,28,16.10
2014,07,12,09,29,16.20
2014,07,12,09,30,16.30
2014,07,12,09,31,16.40
2014,07,12,09,32,16.50
2014,07,12,09,33,16.60
2014,07,12,09,34,16.70
2014,07,12,09,35,16.70
2014,07,12,09,36,16.70
2014,07,12,09,37,16.70
2014,07,12,09,38,16.60
2014,07,12,09,39,16.60
2014,07,12,09,40,16.60
2014,07,12,09,41,16.60
2014,07,12,09,42,16.60
2014,07,12,09,43,16.60
2014,07,12,09,44,16.60
2014,07,12,09,45,16.60
2014,07,12,09,46,16.60
2014,07,12,09,47,16.60
2014,07,12,09,48,16.70
2014,07,12,09,49,16.70
2014,07,12,09,50,16.80
2014,07,12,09,51,16.90
2014,07,12,09,52,16.90
2014,07,12,09,53,16.90
2014,07,12,09,54,17.00
2014,07,12,09,55,17.00
2014,07,12,09,56,17.10
2014,07,12,09,57,17.10
2014,07,12,09,58,17.20
2014,07,12,09,59,17.30
2014,07,12,10,00,17.30
2014,07,12,10,01,17.30
2014,07,12,10,02,17.30
2014,07,12,10,03,17.30
2014,07,12,10,04,17.40
2014,07,12,10,05,17.50
2014,07,12,10,06,17.50
2014,07,12,10,07,17.50
2014,07,12,10,08,17.60
2014,07,12,10,09,17.60
2014,07,12,10,10,17.60
2014,07,12,10,11,17.70
2014,07,12,10,12,17.70
2014,07,12,10,13,17.70
2014,07,12,10,14,17.70
2014,07,12,10,15,17.80
2014,07,12,10,16,17.80
2014,07,12,10,17,17.80
2014,07,12,10,18,17.80
2014,07,12,10,19,17.90
2014,07,12,10,20,17.90
2014,07,12,10,21,17.90
2014,07,12,10,22,17.90
2014,07,12,10,23,17.90
2014,07,12,10,24,18.00
2014,07,12,10,25,18.00
2014,07,12,10,26,18.10
2014,07,12,10,27,18.00
2014,07,12,10,28,18.00
2014,07,12,10,29,18.00
2014,07,12,10,30,18.00
2014,07,12,10,31,18.00
2014,07,12,10,32,18.00
2014,07,12,10,33,18.10
2014,07,12,10,34,18.10
2014,07,12,10,35,18.20
2014,07,12,10,36,18.30
2014,07,12,10,37,18.30
2014,07,12,10,38,18.40
2014,07,12,10,39,18.40
2014,07,12,10,40,18.40
2014,07,12,10,41,18.40
2014,07,12,10,42,18.50
2014,07,12,10,43,18.50
2014,07,12,10,44,18.60
2014,07,12,10,45,18.60
2014,07,12,10,46,18.70
2014,07,12,10,47,18.70
2014,07,12,10,48,18.70
2014,07,12,10,49,18.70
2014,07,12,10,50,18.70
2014,07,12,10,51,18.70
2014,07,12,10,52,18.70
2014,07,12,10,53,18.70
2014,07,12,10,54,18.70
2014,07,12,10,55,18.80
2014,07,12,10,56,18.80
2014,07,12,10,57,18.80
2014,07,12,10,58,18.80
2014,07,12,10,59,18.90
2014,07,12,11,00,19.00
2014,07,12,11,01,19.10
2014,07,12,11,02,19.20
2014,07,12,11,03,19.20
2014,07,12,11,04,19.30
2014,07,12,11,05,19.30
2014,07,12,11,06,19.30
2014,07,12,11,07,19.30
2014,07,12,11,08,19.30
2014,07,12,11,09,19.30
2014,07,12,11,10,19.30
2014,07,12,11,11,19.20
2014,07,12,11,12,19.20
2014,07,12,11,13,19.20
2014,07,12,11,14,19.10
2014,07,12,11,15,19.10
2014,07,12,11,16,19.00
2014,07,12,11,17,18.90
2014,07,12,11,18,18.70
2014,07,12,11,19,18.50
2014,07,12,11,20,18.30
2014,07,12,11,21,18.10
2014,07,12,11,22,18.00
2014,07,12,11,23,17.80
2014,07,12,11,24,17.70
2014,07,12,11,25,17.60
2014,07,12,11,26,17.60
2014,07,12,11,27,17.40
2014,07,12,11,28,17.40
2014,07,12,11,29,17.40
2014,07,12,11,30,17.30
2014,07,12,11,31,17.30
2014,07,12,11,32,17.40
2014,07,12,11,33,17.40
2014,07,12,11,34,17.50
2014,07,12,11,35,17.50
2014,07,12,11,36,17.60
2014,07,12,11,37,17.60
2014,07,12,11,38,17.70
2014,07,12,11,39,17.80
2014,07,12,11,40,17.90
2014,07,12,11,41,18.00
2014,07,12,11,42,18.10
2014,07,12,11,43,18.20
2014,07,12,11,44,18.30
2014,07,12,11,45,18.30
2014,07,12,11,46,18.50
2014,07,12,11,47,18.60
2014,07,12,11,48,18.70
2014,07,12,11,49,18.80
2014,07,12,11,50,19.00
2014,07,12,11,51,19.10
2014,07,12,11,52,19.20
2014,07,12,11,53,19.30
2014,07,12,11,54,19.40
2014,07,12,11,55,19.60
2014,07,12,11,56,19.70
2014,07,12,11,57,19.80
2014,07,12,11,58,19.90
2014,07,12,11,59,20.00
2014,07,12,12,00,20.00
2014,07,12,12,01,20.10
2014,07,12,12,02,20.10
2014,07,12,12,03,20.10
2014,07,12,12,04,20.10
2014,07,12,12,05,20.20
2014,07,12,12,06,20.30
2014,07,12,12,07,20.30
2014,07,12,12,08,20.30
2014,07,12,12,09,20.40
2014,07,12,12,10,20.40
2014,07,12,12,11,20.40
2014,07,12,12,12,20.40
2014,07,12,12,13,20.40
2014,07,12,12,14,20.40
2014,07,12,12,15,20.40
2014,07,12,12,16,20.40
2014,07,12,12,17,20.40
2014,07,12,12,18,20.50
2014,07,12,12,19,20.50
2014,07,12,12,20,20.50
2014,07,12,12,21,20.40
2014,07,12,12,22,20.40
2014,07,12,12,23,20.40
2014,07,12,12,24,20.40
2014,07,12,12,25,20.40
2014,07,12,12,26,20.50
2014,07,12,12,27,20.60
2014,07,12,12,28,20.60
2014,07,12,12,29,20.60
2014,07,12,12,30,20.60
2014,07,12,12,31,20.60
2014,07,12,12,32,20.60
2014,07,12,12,33,20.50
2014,07,12,12,34,20.50
2014,07,12,12,35,20.40
2014,07,12,12,36,20.30
2014,07,12,12,37,20.30
2014,07,12,12,38,20.20
2014,07,12,12,39,20.10
2014,07,12,12,40,20.00
2014,07,12,12,41,20.00
2014,07,12,12,42,19.90
2014,07,12,12,43,19.90
2014,07,12,12,44,19.80
2014,07,12,12,45,19.60
2014,07,12,12,46,19.30
2014,07,12,12,47,19.10
2014,07,12,12,48,18.90
2014,07,12,12,49,18.80
2014,07,12,12,50,18.70
2014,07,12,12,51,18.70
2014,07,12,12,52,18.70
2014,07,12,12,53,18.70
2014,07,12,12,54,18.60
2014,07,12,12,55,18.60
2014,07,12,12,56,18.50
2014,07,12,12,57,18.40
2014,07,12,12,58,18.40
2014,07,12,12,59,18.30
2014,07,12,13,00,18.30
2014,07,12,13,01,18.40
2014,07,12,13,02,18.40
2014,07,12,13,03,18.50
2014,07,12,13,04,18.60
2014,07,12,13,05,18.70
2014,07,12,13,06,18.80
2014,07,12,13,07,19.00
2014,07,12,13,08,19.10
2014,07,12,13,09,19.30
2014,07,12,13,10,19.60
2014,07,12,13,11,19.70
2014,07,12,13,12,19.90
2014,07,12,13,13,19.90
2014,07,12,13,14,19.90
2014,07,12,13,15,19.80
2014,07,12,13,16,19.70
2014,07,12,13,17,19.60
2014,07,12,13,18,19.50
2014,07,12,13,19,19.50
2014,07,12,13,20,19.60
2014,07,12,13,21,19.60
2014,07,12,13,22,19.60
2014,07,12,13,23,19.70
2014,07,12,13,24,19.80
2014,07,12,13,25,19.90
2014,07,12,13,26,20.00
2014,07,12,13,27,20.10
2014,07,12,13,28,20.20
2014,07,12,13,29,20.30
2014,07,12,13,30,20.40
2014,07,12,13,31,20.50
2014,07,12,13,32,20.50
2014,07,12,13,33,20.60
2014,07,12,13,34,20.70
2014,07,12,13,35,20.80
2014,07,12,13,36,20.90
2014,07,12,13,37,21.00
2014,07,12,13,38,21.10
2014,07,12,13,39,21.20
2014,07,12,13,40,21.20
2014,07,12,13,41,21.30
2014,07,12,13,42,21.30
2014,07,12,13,43,21.40
2014,07,12,13,44,21.50
2014,07,12,13,45,21.50
2014,07,12,13,46,21.60
2014,07,12,13,47,21.50
2014,07,12,13,48,21.50
2014,07,12,13,49,21.40
2014,07,12,13,50,21.20
2014,07,12,13,51,20.90
2014,07,12,13,52,20.70
2014,07,12,13,53,20.50
2014,07,12,13,54,20.40
2014,07,12,13,55,20.20
2014,07,12,13,56,20.20
2014,07,12,13,57,20.20
2014,07,12,13,58,20.20
2014,07,12,13,59,20.20
2014,07,12,14,00,20.30
2014,07,12,14,01,20.40
2014,07,12,14,02,20.40
2014,07,12,14,03,20.40
2014,07,12,14,04,20.50
2014,07,12,14,05,20.60
2014,07,12,14,06,20.70
2014,07,12,14,07,20.80
2014,07,12,14,08,20.80
2014,07,12,14,09,20.80
2014,07,12,14,10,20.80
2014,07,12,14,11,20.90
2014,07,12,14,12,21.00
2014,07,12,14,13,21.10
2014,07,12,14,14,21.10
2014,07,12,14,15,21.20
2014,07,12,14,16,21.30
2014,07,12,14,17,21.40
2014,07,12,14,18,21.60
2014,07,12,14,19,21.70
2014,07,12,14,20,21.90
2014,07,12,14,21,22.00
2014,07,12,14,22,22.10
2014,07,12,14,23,22.30
2014,07,12,14,24,22.40
2014,07,12,14,25,22.40
2014,07,12,14,26,22.40
2014,07,12,14,27,22.20
2014,07,12,14,28,22.10
2014,07,12,14,29,21.90
2014,07,12,14,30,21.80
2014,07,12,14,31,21.80
2014,07,12,14,32,21.70
2014,07,12,14,33,21.80
2014,07,12,14,34,21.80
2014,07,12,14,35,21.80
2014,07,12,14,36,21.90
2014,07,12,14,37,21.90
2014,07,12,14,38,21.80
2014,07,12,14,39,21.60
2014,07,12,14,40,21.50
2014,07,12,14,41,21.30
2014,07,12,14,42,21.30
2014,07,12,14,43,21.20
2014,07,12,14,44,21.20
2014,07,12,14,45,21.10
2014,07,12,14,46,21.10
2014,07,12,14,47,21.10
2014,07,12,14,48,21.00
2014,07,12,14,49,21.00
2014,07,12,14,50,20.90
2014,07,12,14,51,20.90
2014,07,12,14,52,20.90
2014,07,12,14,53,21.00
2014,07,12,14,54,21.10
2014,07,12,14,55,21.20
2014,07,12,14,56,21.30
2014,07,12,14,57,21.30
2014,07,12,14,58,21.40
2014,07,12,14,59,21.50
2014,07,12,15,00,21.50
2014,07,12,15,01,21.60
2014,07,12,15,02,21.50
2014,07,12,15,03,21.50
2014,07,12,15,04,21.40
2014,07,12,15,05,21.40
2014,07,12,15,06,21.30
2014,07,12,15,07,21.30
2014,07,12,15,08,21.30
2014,07,12,15,09,21.30
2014,07,12,15,10,21.30
2014,07,12,15,11,21.20
2014,07,12,15,12,21.10
2014,07,12,15,13,21.00
2014,07,12,15,14,20.80
2014,07,12,15,15,20.60
2014,07,12,15,16,20.40
2014,07,12,15,17,20.30
2014,07,12,15,18,20.30
2014,07,12,15,19,20.30
2014,07,12,15,20,20.30
2014,07,12,15,21,20.30
2014,07,12,15,22,20.30
2014,07,12,15,23,20.30
2014,07,12,15,24,20.30
2014,07,12,15,25,20.30
2014,07,12,15,26,20.40
2014,07,12,15,27,20.40
2014,07,12,15,28,20.50
2014,07,12,15,29,20.50
2014,07,12,15,30,20.50
2014,07,12,15,31,20.60
2014,07,12,15,32,20.60
2014,07,12,15,33,20.70
2014,07,12,15,34,20.70
2014,07,12,15,35,20.80
2014,07,12,15,36,20.80
2014,07,12,15,37,20.70
2014,07,12,15,38,20.70
2014,07,12,15,39,20.70
2014,07,12,15,40,20.70
2014,07,12,15,41,20.70
2014,07,12,15,42,20.80
2014,07,12,15,43,20.80
2014,07,12,15,44,20.90
2014,07,12,15,45,21.10
2014,07,12,15,46,21.20
2014,07,12,15,47,21.20
2014,07,12,15,48,21.20
2014,07,12,15,49,21.30
2014,07,12,15,50,21.30
2014,07,12,15,51,21.30
2014,07,12,15,52,21.30
2014,07,12,15,53,21.30
2014,07,12,15,54,21.40
2014,07,12,15,55,21.40
2014,07,12,15,56,21.50
2014,07,12,15,57,21.60
2014,07,12,15,58,21.70
2014,07,12,15,59,21.80
2014,07,12,16,00,21.90
2014,07,12,16,01,22.00
2014,07,12,16,02,22.00
2014,07,12,16,03,22.10
2014,07,12,16,04,22.30
2014,07,12,16,05,22.40
2014,07,12,16,06,22.50
2014,07,12,16,07,22.50
2014,07,12,16,08,22.50
2014,07,12,16,09,22.60
2014,07,12,16,10,22.60
2014,07,12,16,11,22.60
2014,07,12,16,12,22.60
2014,07,12,16,13,22.60
2014,07,12,16,14,22.50
2014,07,12,16,15,22.50
2014,07,12,16,16,22.50
2014,07,12,16,17,22.50
2014,07,12,16,18,22.50
2014,07,12,16,19,22.50
2014,07,12,16,20,22.40
2014,07,12,16,21,22.40
2014,07,12,16,22,22.30
2014,07,12,16,23,22.30
2014,07,12,16,24,22.30
2014,07,12,16,25,22.30
2014,07,12,16,26,22.40
2014,07,12,16,27,22.40
2014,07,12,16,28,22.50
2014,07,12,16,29,22.50
2014,07,12,16,30,22.60
2014,07,12,16,31,22.70
2014,07,12,16,32,22.70
2014,07,12,16,33,22.70
2014,07,12,16,34,22.70
2014,07,12,16,35,22.70
2014,07,12,16,36,22.70
2014,07,12,16,37,22.70
2014,07,12,16,38,22.60
2014,07,12,16,39,22.60
2014,07,12,16,40,22.50
2014,07,12,16,41,22.50
2014,07,12,16,42,22.40
2014,07,12,16,43,22.40
2014,07,12,16,44,22.40
2014,07,12,16,45,22.40
2014,07,12,16,46,22.40
2014,07,12,16,47,22.30
2014,07,12,16,48,22.30
2014,07,12,16,49,22.30
2014,07,12,16,50,22.30
2014,07,12,16,51,22.20
2014,07,12,16,52,22.10
2014,07,12,16,53,22.00
2014,07,12,16,54,21.90
2014,07,12,16,55,21.80
2014,07,12,16,56,21.70
2014,07,12,16,57,21.70
2014,07,12,16,58,21.60
2014,07,12,16,59,21.50
2014,07,12,17,00,21.40
2014,07,12,17,01,21.40
2014,07,12,17,02,21.30
2014,07,12,17,03,21.20
2014,07,12,17,04,21.20
2014,07,12,17,05,21.10
2014,07,12,17,06,20.90
2014,07,12,17,07,20.80
2014,07,12,17,08,20.70
2014,07,12,17,09,20.70
2014,07,12,17,10,20.70
2014,07,12,17,11,20.70
2014,07,12,17,12,20.70
2014,07,12,17,13,20.70
2014,07,12,17,14,20.80
2014,07,12,17,15,20.80
2014,07,12,17,16,20.90
2014,07,12,17,17,20.90
2014,07,12,17,18,20.90
2014,07,12,17,19,20.90